RSQA2 Weather Reports


Display with metric or nautical units.
time (UTC)temp
F
wind
direction
speed
MPH
gust
MPH
rain 1hr
in
rain 24hr
in
rain mn
in
humidity
%
barometer
mb
20260505192813 46 182 0.0 2.0 0.00 0.00 0.00 75 998.1
20260505185818 45 182 0.0 4.0 0.00 0.00 0.00 77 997.8
20260505184319 45 179 0.0 2.0 0.00 0.00 0.00 78 998.1
20260505182823 44 211 1.0 3.0 0.00 0.00 0.00 78 998.1
20260505181324 43 211 0.0 0.0 0.00 0.00 0.00 79 998.0
20260505172816 44 211 1.0 4.0 0.00 0.00 0.00 77 997.7
20260505171317 45 109 0.0 4.0 0.00 0.00 0.00 78 997.6
20260505165819 44 298 0.0 1.0 0.00 0.00 0.00 80 997.3
20260505164319 43 298 0.0 0.0 0.00 0.00 0.00 82 997.2
20260505162821 41 298 0.0 1.0 0.00 0.00 0.00 83 997.1
20260505161322 41 298 0.0 2.0 0.00 0.00 0.00 83 997.3
20260505152824 39 171 0.0 1.0 0.00 0.00 0.00 87 996.9
20260505122821 39 171 0.0 0.0 0.00 0.00 0.00 82 996.6
20260505121321 39 171 0.0 0.0 0.00 0.00 0.00 82 996.6
20260505115822 39 171 0.0 0.0 0.00 0.00 0.00 82 996.7
20260505114323 41 171 0.0 0.0 0.00 0.00 0.00 80 996.9
20260505111328 42 171 0.0 0.0 0.00 0.00 0.00 81 996.9
20260505101320 43 171 0.0 0.0 0.00 0.00 0.00 80 997.5
20260505095818 43 171 0.0 0.0 0.00 0.00 0.00 80 997.6
20260505094322 43 171 0.0 0.0 0.00 0.00 0.00 79 997.7
20260505092821 43 171 0.0 0.0 0.00 0.00 0.00 79 997.9
20260505091326 43 171 0.0 0.0 0.00 0.00 0.00 79 998.1
20260505084311 43 171 0.0 0.0 0.00 0.00 0.00 78 998.7
20260505082810 44 171 0.0 0.0 0.00 0.00 0.00 77 998.7
20260505081314 44 171 0.0 0.0 0.00 0.00 0.00 75 999.1
20260505075812 45 171 0.0 0.0 0.00 0.00 0.00 76 999.2
20260505072818 47 171 0.0 0.0 0.00 0.00 0.00 74 999.5
20260505071318 48 171 0.0 0.0 0.00 0.00 0.00 72 999.6
20260505064325 50 171 0.0 0.0 0.00 0.00 0.00 63 1000.0
20260505062829 51 171 0.0 3.0 0.00 0.00 0.00 62 1000.0
20260505061329 52 109 0.0 2.0 0.00 0.00 0.00 62 1000.0
20260505055810 52 142 1.0 2.0 0.00 0.00 0.00 60 1000.1
20260505052820 52 236 1.0 3.0 0.00 0.00 0.00 63 1000.3
20260505051321 52 236 0.0 2.0 0.00 0.00 0.00 62 1000.7
20260505041315 53 236 0.0 3.0 0.00 0.00 0.00 62 1001.9
20260505035816 53 119 0.0 0.0 0.00 0.00 0.00 65 1002.2
20260505032821 52 119 0.0 1.0 0.00 0.00 0.00 66 1002.8
20260505024316 51 119 0.0 0.0 0.00 0.00 0.00 69 1003.8
20260505015822 53 119 0.0 0.0 0.00 0.00 0.00 63 1004.9
20260505014327 53 119 0.0 0.0 0.00 0.00 0.00 61 1005.2
20260505012826 54 119 0.0 1.0 0.00 0.00 0.00 57 1005.4
20260505005811 54 119 0.0 0.0 0.00 0.00 0.00 56 1005.8
20260505004311 54 119 0.0 1.0 0.00 0.00 0.00 56 1006.0
20260505002814 55 119 0.0 3.0 0.00 0.00 0.00 54 1006.4
20260505001315 55 119 0.0 2.0 0.00 0.00 0.00 54 1006.6
20260504235816 55 140 0.0 3.0 0.00 0.00 0.00 54 1006.9
20260504234316 54 126 0.0 4.0 0.00 0.00 0.00 54 1007.3
20260504232820 54 144 1.0 7.0 0.00 0.00 0.00 53 1007.6
20260504231320 55 124 0.0 4.0 0.00 0.00 0.00 56 1007.9
20260504224324 55 113 2.0 5.0 0.00 0.00 0.00 53 1008.5
20260504222824 55 107 3.0 5.0 0.00 0.00 0.00 55 1008.9
20260504221328 55 138 2.0 6.0 0.00 0.00 0.00 54 1009.2
20260504212816 54 141 2.0 5.0 0.00 0.00 0.00 58 1009.7
20260504205819 53 108 3.0 5.0 0.00 0.00 0.00 57 1010.1
20260504204324 54 107 2.0 8.0 0.00 0.00 0.00 57 1010.2
20260504202823 53 86 2.0 8.0 0.00 0.00 0.00 58 1010.4
20260504195810 52 111 1.0 7.0 0.00 0.00 0.00 60 1011.1